Time,TemperatureF,DewpointF,PressureIn,WindDirection,WindDirectionDegrees,WindSpeedMPH,WindSpeedGustMPH,Humidity,HourlyPrecipIn,Conditions,Clouds,dailyrainin,SoftwareType,DateUTC
2013-03-25 00:04:00,42.8,2.3,29.53,North,-999,0.0,0.0,18,0.00,,,0.00,LWC V1.12 B30,2013-03-25 06:04:00,
2013-03-25 00:09:00,42.7,2.2,29.53,North,-999,0.0,0.0,18,0.00,,,0.00,LWC V1.12 B30,2013-03-25 06:09:00,
2013-03-25 00:14:00,42.6,2.1,29.53,North,-999,0.0,0.0,18,0.00,,,0.00,LWC V1.12 B30,2013-03-25 06:14:00,
2013-03-25 00:19:00,42.5,2.0,29.53,North,-999,0.0,0.0,18,0.00,,,0.00,LWC V1.12 B30,2013-03-25 06:19:00,
2013-03-25 00:24:00,42.5,2.0,29.53,North,-999,0.0,0.0,18,0.00,,,0.00,LWC V1.12 B30,2013-03-25 06:24:00,
2013-03-25 00:29:00,42.4,3.1,29.53,North,-999,0.0,0.0,19,0.00,,,0.00,LWC V1.12 B30,2013-03-25 06:29:00,
2013-03-25 00:34:00,42.3,3.0,29.53,North,-999,0.0,0.0,19,0.00,,,0.00,LWC V1.12 B30,2013-03-25 06:34:00,
2013-03-25 00:39:00,42.2,2.9,29.53,North,-999,0.0,0.0,19,0.00,,,0.00,LWC V1.12 B30,2013-03-25 06:39:00,
2013-03-25 00:44:00,42.1,2.9,29.53,North,-999,0.0,0.0,19,0.00,,,0.00,LWC V1.12 B30,2013-03-25 06:44:00,
2013-03-25 00:49:00,41.9,2.7,29.53,North,-999,0.0,0.0,19,0.00,,,0.00,LWC V1.12 B30,2013-03-25 06:49:00,
2013-03-25 00:54:00,41.9,2.7,29.53,North,-999,0.0,0.0,19,0.00,,,0.00,LWC V1.12 B30,2013-03-25 06:54:00,
2013-03-25 00:59:00,41.7,2.5,29.53,North,-999,0.0,0.0,19,0.00,,,0.00,LWC V1.12 B30,2013-03-25 06:59:00,
2013-03-25 01:04:00,41.6,2.4,29.53,North,-999,0.0,0.0,19,0.00,,,0.00,LWC V1.12 B30,2013-03-25 07:04:00,
2013-03-25 01:09:00,41.5,2.4,29.53,North,-999,0.0,0.0,19,0.00,,,0.00,LWC V1.12 B30,2013-03-25 07:09:00,
2013-03-25 01:14:00,41.3,2.2,29.53,North,-999,0.0,0.0,19,0.00,,,0.00,LWC V1.12 B30,2013-03-25 07:14:00,
2013-03-25 01:19:00,41.1,2.0,29.53,North,-999,0.0,0.0,19,0.00,,,0.00,LWC V1.12 B30,2013-03-25 07:19:00,
2013-03-25 01:24:00,40.9,3.0,29.53,North,-999,0.0,0.0,20,0.00,,,0.00,LWC V1.12 B30,2013-03-25 07:24:00,
2013-03-25 01:29:00,40.8,2.9,29.53,North,-999,0.0,0.0,20,0.00,,,0.00,LWC V1.12 B30,2013-03-25 07:29:00,
2013-03-25 01:34:00,40.7,3.8,29.53,North,-999,0.0,0.0,21,0.00,,,0.00,LWC V1.12 B30,2013-03-25 07:34:00,
2013-03-25 01:39:00,40.5,3.7,29.53,North,-999,0.0,0.0,21,0.00,,,0.00,LWC V1.12 B30,2013-03-25 07:39:00,
2013-03-25 01:44:00,40.3,3.5,29.53,North,-999,0.0,0.0,21,0.00,,,0.00,LWC V1.12 B30,2013-03-25 07:44:00,
2013-03-25 01:49:00,39.9,3.2,29.53,North,-999,0.0,0.0,21,0.00,,,0.00,LWC V1.12 B30,2013-03-25 07:49:00,
2013-03-25 01:54:00,39.6,2.9,29.53,North,-999,0.0,0.0,21,0.00,,,0.00,LWC V1.12 B30,2013-03-25 07:54:00,
2013-03-25 01:59:00,39.7,3.0,29.53,North,-999,0.0,0.0,21,0.00,,,0.00,LWC V1.12 B30,2013-03-25 07:59:00,
2013-03-25 02:04:00,39.7,3.0,29.53,North,-999,0.0,0.0,21,0.00,,,0.00,LWC V1.12 B30,2013-03-25 08:04:00,
2013-03-25 02:09:00,39.9,3.2,29.53,North,-999,0.0,0.0,21,0.00,,,0.00,LWC V1.12 B30,2013-03-25 08:09:00,
2013-03-25 02:14:00,39.8,3.1,29.53,North,-999,0.0,0.0,21,0.00,,,0.00,LWC V1.12 B30,2013-03-25 08:14:00,
2013-03-25 02:19:00,39.8,3.1,29.53,North,-999,0.0,0.0,21,0.00,,,0.00,LWC V1.12 B30,2013-03-25 08:19:00,
2013-03-25 02:24:00,39.5,3.8,29.53,North,-999,0.0,0.0,22,0.00,,,0.00,LWC V1.12 B30,2013-03-25 08:24:00,
2013-03-25 02:29:00,39.4,4.7,29.53,North,-999,0.0,0.0,23,0.00,,,0.00,LWC V1.12 B30,2013-03-25 08:29:00,
2013-03-25 02:34:00,39.1,5.4,29.53,North,-999,0.0,0.0,24,0.00,,,0.00,LWC V1.12 B30,2013-03-25 08:34:00,
2013-03-25 02:39:00,39.0,5.3,29.53,North,-999,0.0,0.0,24,0.00,,,0.00,LWC V1.12 B30,2013-03-25 08:39:00,
2013-03-25 02:44:00,38.9,5.2,29.53,North,-999,0.0,0.0,24,0.00,,,0.00,LWC V1.12 B30,2013-03-25 08:44:00,
2013-03-25 02:49:00,38.8,5.1,29.53,North,-999,0.0,0.0,24,0.00,,,0.00,LWC V1.12 B30,2013-03-25 08:49:00,
2013-03-25 02:55:00,38.6,5.0,29.53,North,-999,0.0,0.0,24,0.00,,,0.00,LWC V1.12 B30,2013-03-25 08:55:00,
2013-03-25 03:00:00,38.4,4.8,29.53,North,-999,0.0,0.0,24,0.00,,,0.00,LWC V1.12 B30,2013-03-25 09:00:00,
2013-03-25 03:05:00,38.2,4.6,29.53,North,-999,0.0,0.0,24,0.00,,,0.00,LWC V1.12 B30,2013-03-25 09:05:00,
2013-03-25 03:10:00,38.0,4.5,29.53,North,-999,0.0,0.0,24,0.00,,,0.00,LWC V1.12 B30,2013-03-25 09:10:00,
2013-03-25 03:15:00,37.9,5.3,29.53,North,-999,0.0,0.0,25,0.00,,,0.00,LWC V1.12 B30,2013-03-25 09:15:00,
2013-03-25 03:20:00,37.6,5.0,29.53,North,-999,0.0,0.0,25,0.00,,,0.00,LWC V1.12 B30,2013-03-25 09:20:00,
2013-03-25 03:25:00,37.5,4.9,29.53,North,-999,0.0,0.0,25,0.00,,,0.00,LWC V1.12 B30,2013-03-25 09:25:00,
2013-03-25 03:30:00,37.2,5.5,29.53,North,-999,0.0,0.0,26,0.00,,,0.00,LWC V1.12 B30,2013-03-25 09:30:00,
2013-03-25 03:35:00,37.3,4.7,29.53,North,-999,0.0,0.0,25,0.00,,,0.00,LWC V1.12 B30,2013-03-25 09:35:00,
2013-03-25 03:40:00,37.2,5.5,29.53,North,-999,0.0,0.0,26,0.00,,,0.00,LWC V1.12 B30,2013-03-25 09:40:00,
2013-03-25 03:45:00,37.2,5.5,29.53,North,-999,0.0,0.0,26,0.00,,,0.00,LWC V1.12 B30,2013-03-25 09:45:00,
2013-03-25 03:50:00,37.2,5.5,29.53,North,-999,0.0,0.0,26,0.00,,,0.00,LWC V1.12 B30,2013-03-25 09:50:00,
2013-03-25 03:55:00,37.3,4.7,29.53,North,-999,0.0,0.0,25,0.00,,,0.00,LWC V1.12 B30,2013-03-25 09:55:00,
2013-03-25 04:00:00,37.2,4.7,29.53,North,-999,0.0,0.0,25,0.00,,,0.00,LWC V1.12 B30,2013-03-25 10:00:00,
2013-03-25 04:05:00,37.1,4.6,29.53,North,-999,0.0,0.0,25,0.00,,,0.00,LWC V1.12 B30,2013-03-25 10:05:00,
2013-03-25 04:10:00,37.0,5.3,29.53,North,-999,0.0,0.0,26,0.00,,,0.00,LWC V1.12 B30,2013-03-25 10:10:00,
2013-03-25 04:15:00,37.0,4.5,29.53,North,-999,0.0,0.0,25,0.00,,,0.00,LWC V1.12 B30,2013-03-25 10:15:00,
2013-03-25 04:20:00,36.9,5.3,29.53,North,-999,0.0,0.0,26,0.00,,,0.00,LWC V1.12 B30,2013-03-25 10:20:00,
2013-03-25 04:25:00,36.7,5.1,29.53,North,-999,0.0,0.0,26,0.00,,,0.00,LWC V1.12 B30,2013-03-25 10:25:00,
2013-03-25 04:30:00,36.5,4.9,29.53,North,-999,0.0,0.0,26,0.00,,,0.00,LWC V1.12 B30,2013-03-25 10:30:00,
2013-03-25 04:35:00,36.4,5.6,29.53,North,-999,0.0,0.0,27,0.00,,,0.00,LWC V1.12 B30,2013-03-25 10:35:00,
2013-03-25 04:40:00,36.1,5.4,29.53,North,-999,0.0,0.0,27,0.00,,,0.00,LWC V1.12 B30,2013-03-25 10:40:00,
2013-03-25 04:45:00,35.9,5.2,29.53,North,-999,0.0,0.0,27,0.00,,,0.00,LWC V1.12 B30,2013-03-25 10:45:00,
2013-03-25 04:50:00,35.9,5.2,29.53,North,-999,0.0,0.0,27,0.00,,,0.00,LWC V1.12 B30,2013-03-25 10:50:00,
2013-03-25 04:55:00,35.7,5.0,29.53,North,-999,0.0,0.0,27,0.00,,,0.00,LWC V1.12 B30,2013-03-25 10:55:00,
2013-03-25 05:00:00,35.4,4.8,29.53,North,-999,0.0,0.0,27,0.00,,,0.00,LWC V1.12 B30,2013-03-25 11:00:00,
2013-03-25 05:05:00,35.4,5.6,29.53,North,-999,0.0,0.0,28,0.00,,,0.00,LWC V1.12 B30,2013-03-25 11:05:00,
2013-03-25 05:10:00,35.4,4.8,29.53,North,-999,0.0,0.0,27,0.00,,,0.00,LWC V1.12 B30,2013-03-25 11:10:00,
2013-03-25 05:16:00,35.4,4.8,29.53,North,-999,0.0,0.0,27,0.00,,,0.00,LWC V1.12 B30,2013-03-25 11:16:00,
2013-03-25 05:21:00,35.4,4.8,29.53,North,-999,0.0,0.0,27,0.00,,,0.00,LWC V1.12 B30,2013-03-25 11:21:00,
2013-03-25 05:26:00,35.5,5.7,29.53,North,-999,0.0,0.0,28,0.00,,,0.00,LWC V1.12 B30,2013-03-25 11:26:00,
2013-03-25 05:31:00,35.5,5.7,29.53,North,-999,0.0,0.0,28,0.00,,,0.00,LWC V1.12 B30,2013-03-25 11:31:00,
2013-03-25 05:36:00,35.3,5.5,29.53,North,-999,0.0,0.0,28,0.00,,,0.00,LWC V1.12 B30,2013-03-25 11:36:00,
2013-03-25 05:41:00,35.2,5.4,29.53,North,-999,0.0,0.0,28,0.00,,,0.00,LWC V1.12 B30,2013-03-25 11:41:00,
2013-03-25 05:46:00,35.2,5.4,29.53,North,-999,0.0,0.0,28,0.00,,,0.00,LWC V1.12 B30,2013-03-25 11:46:00,
2013-03-25 05:51:00,35.1,6.1,29.53,North,-999,0.0,0.0,29,0.00,,,0.00,LWC V1.12 B30,2013-03-25 11:51:00,
2013-03-25 05:56:00,35.0,6.0,29.53,North,-999,0.0,0.0,29,0.00,,,0.00,LWC V1.12 B30,2013-03-25 11:56:00,
2013-03-25 06:01:00,34.9,5.9,29.53,North,-999,0.0,0.0,29,0.00,,,0.00,LWC V1.12 B30,2013-03-25 12:01:00,
2013-03-25 06:06:00,34.8,5.8,29.53,North,-999,0.0,0.0,29,0.00,,,0.00,LWC V1.12 B30,2013-03-25 12:06:00,
2013-03-25 06:11:00,34.8,5.8,29.53,North,-999,0.0,0.0,29,0.00,,,0.00,LWC V1.12 B30,2013-03-25 12:11:00,
2013-03-25 06:17:00,34.7,6.5,29.53,North,-999,0.0,0.0,30,0.00,,,0.00,LWC V1.12 B30,2013-03-25 12:17:00,
2013-03-25 06:22:00,34.6,6.4,29.53,North,-999,0.0,0.0,30,0.00,,,0.00,LWC V1.12 B30,2013-03-25 12:22:00,
2013-03-25 06:27:00,34.5,6.3,29.53,North,-999,0.0,0.0,30,0.00,,,0.00,LWC V1.12 B30,2013-03-25 12:27:00,
2013-03-25 06:32:00,34.4,6.2,29.53,North,-999,0.0,0.0,30,0.00,,,0.00,LWC V1.12 B30,2013-03-25 12:32:00,
2013-03-25 06:37:00,34.4,6.2,29.53,North,-999,0.0,0.0,30,0.00,,,0.00,LWC V1.12 B30,2013-03-25 12:37:00,
2013-03-25 06:42:00,34.3,6.8,29.53,North,-999,0.0,0.0,31,0.00,,,0.00,LWC V1.12 B30,2013-03-25 12:42:00,
2013-03-25 06:47:00,34.2,6.8,29.53,North,-999,0.0,0.0,31,0.00,,,0.00,LWC V1.12 B30,2013-03-25 12:47:00,
2013-03-25 06:52:00,34.2,6.8,29.53,North,-999,0.0,0.0,31,0.00,,,0.00,LWC V1.12 B30,2013-03-25 12:52:00,
2013-03-25 06:57:00,34.1,6.7,29.53,North,-999,0.0,0.0,31,0.00,,,0.00,LWC V1.12 B30,2013-03-25 12:57:00,
2013-03-25 07:02:00,34.1,6.7,29.53,North,-999,0.0,0.0,31,0.00,,,0.00,LWC V1.12 B30,2013-03-25 13:02:00,
2013-03-25 07:07:00,34.1,6.7,29.53,North,-999,0.0,0.0,31,0.00,,,0.00,LWC V1.12 B30,2013-03-25 13:07:00,
2013-03-25 07:12:00,34.1,6.7,29.53,North,-999,0.0,0.0,31,0.00,,,0.00,LWC V1.12 B30,2013-03-25 13:12:00,
2013-03-25 07:17:00,34.0,7.3,29.53,North,-999,0.0,0.0,32,0.00,,,0.00,LWC V1.12 B30,2013-03-25 13:17:00,
2013-03-25 07:22:00,33.9,7.2,29.53,North,-999,0.0,0.0,32,0.00,,,0.00,LWC V1.12 B30,2013-03-25 13:22:00,
2013-03-25 07:27:00,34.1,7.4,29.53,North,-999,0.0,0.0,32,0.00,,,0.00,LWC V1.12 B30,2013-03-25 13:27:00,
2013-03-25 07:32:00,34.2,7.5,29.53,North,-999,0.0,0.0,32,0.00,,,0.00,LWC V1.12 B30,2013-03-25 13:32:00,
2013-03-25 07:37:00,34.2,7.5,29.53,North,-999,0.0,0.0,32,0.00,,,0.00,LWC V1.12 B30,2013-03-25 13:37:00,
2013-03-25 07:42:00,34.2,7.5,29.53,North,-999,0.0,0.0,32,0.00,,,0.00,LWC V1.12 B30,2013-03-25 13:42:00,
2013-03-25 07:47:00,34.5,8.4,29.53,North,-999,0.0,0.0,33,0.00,,,0.00,LWC V1.12 B30,2013-03-25 13:47:00,
2013-03-25 07:52:00,34.7,8.6,29.53,North,-999,0.0,0.0,33,0.00,,,0.00,LWC V1.12 B30,2013-03-25 13:52:00,
2013-03-25 07:57:00,34.9,8.1,29.53,North,-999,0.0,0.0,32,0.00,,,0.00,LWC V1.12 B30,2013-03-25 13:57:00,
2013-03-25 08:02:00,35.0,8.2,29.53,North,-999,0.0,0.0,32,0.00,,,0.00,LWC V1.12 B30,2013-03-25 14:02:00,
2013-03-25 08:08:00,35.0,8.2,29.53,North,-999,0.0,0.0,32,0.00,,,0.00,LWC V1.12 B30,2013-03-25 14:08:00,
2013-03-25 08:13:00,35.2,8.3,29.53,North,-999,0.0,0.0,32,0.00,,,0.00,LWC V1.12 B30,2013-03-25 14:13:00,
2013-03-25 08:18:00,35.2,7.6,29.53,North,-999,0.0,0.0,31,0.00,,,0.00,LWC V1.12 B30,2013-03-25 14:18:00,
2013-03-25 08:23:00,35.3,8.4,29.53,North,-999,0.0,0.0,32,0.00,,,0.00,LWC V1.12 B30,2013-03-25 14:23:00,
2013-03-25 08:28:00,35.3,8.4,29.53,North,-999,0.0,0.0,32,0.00,,,0.00,LWC V1.12 B30,2013-03-25 14:28:00,
2013-03-25 08:33:00,35.5,7.9,29.53,North,-999,0.0,0.0,31,0.00,,,0.00,LWC V1.12 B30,2013-03-25 14:33:00,
2013-03-25 08:38:00,35.8,8.2,29.53,North,-999,0.0,0.0,31,0.00,,,0.00,LWC V1.12 B30,2013-03-25 14:38:00,
2013-03-25 08:43:00,36.2,8.5,29.53,North,-999,0.0,0.0,31,0.00,,,0.00,LWC V1.12 B30,2013-03-25 14:43:00,
2013-03-25 08:48:00,36.6,8.1,29.53,North,-999,0.0,0.0,30,0.00,,,0.00,LWC V1.12 B30,2013-03-25 14:48:00,
2013-03-25 08:53:00,37.1,7.8,29.53,North,-999,0.0,0.0,29,0.00,,,0.00,LWC V1.12 B30,2013-03-25 14:53:00,
2013-03-25 08:58:00,37.7,7.6,29.53,North,-999,0.0,0.0,28,0.00,,,0.00,LWC V1.12 B30,2013-03-25 14:58:00,
2013-03-25 09:03:00,38.2,8.0,29.53,North,-999,0.0,0.0,28,0.00,,,0.00,LWC V1.12 B30,2013-03-25 15:03:00,
2013-03-25 09:08:00,38.6,7.5,29.53,North,-999,0.0,0.0,27,0.00,,,0.00,LWC V1.12 B30,2013-03-25 15:08:00,
2013-03-25 09:13:00,38.9,7.8,29.53,North,-999,0.0,0.0,27,0.00,,,0.00,LWC V1.12 B30,2013-03-25 15:13:00,
2013-03-25 09:18:00,39.2,8.1,29.53,North,-999,0.0,0.0,27,0.00,,,0.00,LWC V1.12 B30,2013-03-25 15:18:00,
2013-03-25 09:23:00,39.6,8.4,29.53,North,-999,0.0,0.0,27,0.00,,,0.00,LWC V1.12 B30,2013-03-25 15:23:00,
2013-03-25 09:28:00,39.6,8.4,29.53,North,-999,0.0,0.0,27,0.00,,,0.00,LWC V1.12 B30,2013-03-25 15:28:00,
2013-03-25 09:34:00,39.8,8.6,29.53,North,-999,0.0,0.0,27,0.00,,,0.00,LWC V1.12 B30,2013-03-25 15:34:00,
2013-03-25 09:39:00,40.0,8.8,29.53,North,-999,0.0,0.0,27,0.00,,,0.00,LWC V1.12 B30,2013-03-25 15:39:00,
2013-03-25 09:44:00,40.2,8.9,29.53,North,-999,0.0,0.0,27,0.00,,,0.00,LWC V1.12 B30,2013-03-25 15:44:00,
2013-03-25 09:49:00,40.4,9.1,29.53,North,-999,0.0,0.0,27,0.00,,,0.00,LWC V1.12 B30,2013-03-25 15:49:00,
2013-03-25 09:54:00,40.8,8.6,29.53,North,-999,0.0,0.0,26,0.00,,,0.00,LWC V1.12 B30,2013-03-25 15:54:00,
2013-03-25 09:59:00,40.8,8.6,29.53,North,-999,0.0,0.0,26,0.00,,,0.00,LWC V1.12 B30,2013-03-25 15:59:00,
2013-03-25 10:04:00,41.1,8.9,29.53,North,-999,0.0,0.0,26,0.00,,,0.00,LWC V1.12 B30,2013-03-25 16:04:00,
2013-03-25 10:09:00,41.3,9.0,29.53,North,-999,0.0,0.0,26,0.00,,,0.00,LWC V1.12 B30,2013-03-25 16:09:00,
2013-03-25 10:14:00,41.4,8.2,29.53,North,-999,0.0,0.0,25,0.00,,,0.00,LWC V1.12 B30,2013-03-25 16:14:00,
2013-03-25 10:19:00,41.5,8.3,29.53,North,-999,0.0,0.0,25,0.00,,,0.00,LWC V1.12 B30,2013-03-25 16:19:00,
2013-03-25 10:24:00,41.6,8.4,29.53,North,-999,0.0,0.0,25,0.00,,,0.00,LWC V1.12 B30,2013-03-25 16:24:00,
2013-03-25 10:30:00,41.7,8.5,29.53,North,-999,0.0,0.0,25,0.00,,,0.00,LWC V1.12 B30,2013-03-25 16:30:00,
2013-03-25 10:35:00,41.9,8.7,29.53,North,-999,0.0,0.0,25,0.00,,,0.00,LWC V1.12 B30,2013-03-25 16:35:00,
2013-03-25 10:40:00,42.1,8.8,29.53,North,-999,0.0,0.0,25,0.00,,,0.00,LWC V1.12 B30,2013-03-25 16:40:00,
2013-03-25 10:45:00,42.3,9.0,29.53,North,-999,0.0,0.0,25,0.00,,,0.00,LWC V1.12 B30,2013-03-25 16:45:00,
2013-03-25 10:50:00,42.4,9.1,29.53,North,-999,0.0,0.0,25,0.00,,,0.00,LWC V1.12 B30,2013-03-25 16:50:00,
2013-03-25 10:55:00,42.8,8.5,29.53,North,-999,0.0,0.0,24,0.00,,,0.00,LWC V1.12 B30,2013-03-25 16:55:00,
2013-03-25 11:00:00,43.0,8.7,29.53,North,-999,0.0,0.0,24,0.00,,,0.00,LWC V1.12 B30,2013-03-25 17:00:00,
2013-03-25 11:05:00,43.2,8.9,29.53,North,-999,0.0,0.0,24,0.00,,,0.00,LWC V1.12 B30,2013-03-25 17:05:00,
2013-03-25 11:10:00,43.6,9.2,29.53,North,-999,0.0,0.0,24,0.00,,,0.00,LWC V1.12 B30,2013-03-25 17:10:00,
2013-03-25 11:15:00,43.8,9.4,29.53,North,-999,0.0,0.0,24,0.00,,,0.00,LWC V1.12 B30,2013-03-25 17:15:00,
2013-03-25 11:20:00,43.9,8.5,29.53,North,-999,0.0,0.0,23,0.00,,,0.00,LWC V1.12 B30,2013-03-25 17:20:00,
2013-03-25 11:25:00,43.8,9.4,29.53,North,-999,0.0,0.0,24,0.00,,,0.00,LWC V1.12 B30,2013-03-25 17:25:00,
2013-03-25 11:30:00,43.9,8.5,29.53,North,-999,0.0,0.0,23,0.00,,,0.00,LWC V1.12 B30,2013-03-25 17:30:00,
2013-03-25 11:35:00,43.9,8.5,29.53,North,-999,0.0,0.0,23,0.00,,,0.00,LWC V1.12 B30,2013-03-25 17:35:00,
2013-03-25 11:40:00,43.9,7.5,29.53,North,-999,0.0,0.0,22,0.00,,,0.00,LWC V1.12 B30,2013-03-25 17:40:00,
2013-03-25 11:46:00,44.2,7.8,29.53,North,-999,0.0,0.0,22,0.00,,,0.00,LWC V1.12 B30,2013-03-25 17:46:00,
2013-03-25 11:51:00,44.6,8.1,29.53,North,-999,0.0,0.0,22,0.00,,,0.00,LWC V1.12 B30,2013-03-25 17:51:00,
2013-03-25 11:56:00,44.9,7.4,29.53,North,-999,0.0,0.0,21,0.00,,,0.00,LWC V1.12 B30,2013-03-25 17:56:00,
2013-03-25 12:01:00,44.9,7.4,29.53,North,-999,0.0,0.0,21,0.00,,,0.00,LWC V1.12 B30,2013-03-25 18:01:00,
2013-03-25 12:06:00,45.2,7.6,29.53,North,-999,0.0,0.0,21,0.00,,,0.00,LWC V1.12 B30,2013-03-25 18:06:00,
2013-03-25 12:11:00,45.2,7.6,29.53,North,-999,0.0,0.0,21,0.00,,,0.00,LWC V1.12 B30,2013-03-25 18:11:00,
2013-03-25 12:16:00,45.3,7.7,29.53,North,-999,0.0,0.0,21,0.00,,,0.00,LWC V1.12 B30,2013-03-25 18:16:00,
2013-03-25 12:21:00,45.4,7.8,29.53,North,-999,0.0,0.0,21,0.00,,,0.00,LWC V1.12 B30,2013-03-25 18:21:00,
2013-03-25 12:26:00,45.6,6.9,29.53,North,-999,0.0,0.0,20,0.00,,,0.00,LWC V1.12 B30,2013-03-25 18:26:00,
2013-03-25 12:31:00,45.7,7.0,29.53,North,-999,0.0,0.0,20,0.00,,,0.00,LWC V1.12 B30,2013-03-25 18:31:00,
2013-03-25 12:36:00,46.1,6.2,29.53,North,-999,0.0,0.0,19,0.00,,,0.00,LWC V1.12 B30,2013-03-25 18:36:00,
2013-03-25 12:41:00,46.1,6.2,29.53,North,-999,0.0,0.0,19,0.00,,,0.00,LWC V1.12 B30,2013-03-25 18:41:00,
2013-03-25 12:46:00,46.3,6.3,29.53,North,-999,0.0,0.0,19,0.00,,,0.00,LWC V1.12 B30,2013-03-25 18:46:00,
2013-03-25 12:52:00,46.6,6.6,29.53,North,-999,0.0,0.0,19,0.00,,,0.00,LWC V1.12 B30,2013-03-25 18:52:00,
2013-03-25 12:57:00,46.8,6.7,29.53,North,-999,0.0,0.0,19,0.00,,,0.00,LWC V1.12 B30,2013-03-25 18:57:00,
2013-03-25 13:02:00,47.2,7.1,29.53,North,-999,0.0,0.0,19,0.00,,,0.00,LWC V1.12 B30,2013-03-25 19:02:00,
2013-03-25 13:07:00,47.4,7.2,29.53,North,-999,0.0,0.0,19,0.00,,,0.00,LWC V1.12 B30,2013-03-25 19:07:00,
2013-03-25 13:12:00,47.7,7.5,29.53,North,-999,0.0,0.0,19,0.00,,,0.00,LWC V1.12 B30,2013-03-25 19:12:00,
2013-03-25 13:17:00,47.8,7.6,29.53,North,-999,0.0,0.0,19,0.00,,,0.00,LWC V1.12 B30,2013-03-25 19:17:00,
2013-03-25 13:22:00,47.8,6.4,29.53,North,-999,0.0,0.0,18,0.00,,,0.00,LWC V1.12 B30,2013-03-25 19:22:00,
2013-03-25 13:27:00,47.7,6.3,29.53,North,-999,0.0,0.0,18,0.00,,,0.00,LWC V1.12 B30,2013-03-25 19:27:00,
2013-03-25 13:32:00,47.9,7.7,29.53,North,-999,0.0,0.0,19,0.00,,,0.00,LWC V1.12 B30,2013-03-25 19:32:00,
2013-03-25 13:38:00,48.1,7.8,29.53,North,-999,0.0,0.0,19,0.00,,,0.00,LWC V1.12 B30,2013-03-25 19:38:00,
2013-03-25 13:43:00,48.6,8.2,29.53,North,-999,0.0,0.0,19,0.00,,,0.00,LWC V1.12 B30,2013-03-25 19:43:00,
2013-03-25 13:48:00,48.9,8.5,29.53,North,-999,0.0,0.0,19,0.00,,,0.00,LWC V1.12 B30,2013-03-25 19:48:00,
2013-03-25 13:53:00,48.8,7.2,29.53,North,-999,0.0,0.0,18,0.00,,,0.00,LWC V1.12 B30,2013-03-25 19:53:00,
2013-03-25 13:58:00,48.7,8.3,29.53,North,-999,0.0,0.0,19,0.00,,,0.00,LWC V1.12 B30,2013-03-25 19:58:00,
2013-03-25 14:03:00,49.0,8.6,29.53,North,-999,0.0,0.0,19,0.00,,,0.00,LWC V1.12 B30,2013-03-25 20:03:00,
2013-03-25 14:08:00,49.2,8.7,29.53,North,-999,0.0,0.0,19,0.00,,,0.00,LWC V1.12 B30,2013-03-25 20:08:00,
2013-03-25 14:13:00,49.2,7.5,29.53,North,-999,0.0,0.0,18,0.00,,,0.00,LWC V1.12 B30,2013-03-25 20:13:00,
2013-03-25 14:18:00,49.2,7.5,29.53,North,-999,0.0,0.0,18,0.00,,,0.00,LWC V1.12 B30,2013-03-25 20:18:00,
2013-03-25 14:24:00,49.3,7.6,29.53,North,-999,0.0,0.0,18,0.00,,,0.00,LWC V1.12 B30,2013-03-25 20:24:00,
2013-03-25 14:29:00,49.5,9.0,29.53,North,-999,0.0,0.0,19,0.00,,,0.00,LWC V1.12 B30,2013-03-25 20:29:00,
2013-03-25 14:34:00,49.9,8.1,29.53,North,-999,0.0,0.0,18,0.00,,,0.00,LWC V1.12 B30,2013-03-25 20:34:00,
2013-03-25 14:39:00,50.0,9.4,29.53,North,-999,0.0,0.0,19,0.00,,,0.00,LWC V1.12 B30,2013-03-25 20:39:00,
2013-03-25 14:44:00,50.2,8.4,29.53,North,-999,0.0,0.0,18,0.00,,,0.00,LWC V1.12 B30,2013-03-25 20:44:00,
2013-03-25 14:49:00,50.2,8.4,29.53,North,-999,0.0,0.0,18,0.00,,,0.00,LWC V1.12 B30,2013-03-25 20:49:00,
2013-03-25 14:54:00,50.4,8.5,29.53,North,-999,0.0,0.0,18,0.00,,,0.00,LWC V1.12 B30,2013-03-25 20:54:00,
2013-03-25 14:59:00,50.6,8.7,29.53,North,-999,0.0,0.0,18,0.00,,,0.00,LWC V1.12 B30,2013-03-25 20:59:00,
2013-03-25 15:04:00,50.7,8.8,29.53,North,-999,0.0,0.0,18,0.00,,,0.00,LWC V1.12 B30,2013-03-25 21:04:00,
2013-03-25 15:09:00,50.8,7.6,29.53,North,-999,0.0,0.0,17,0.00,,,0.00,LWC V1.12 B30,2013-03-25 21:09:00,
2013-03-25 15:14:00,50.7,8.8,29.53,North,-999,0.0,0.0,18,0.00,,,0.00,LWC V1.12 B30,2013-03-25 21:14:00,
2013-03-25 15:19:00,50.7,8.8,29.53,North,-999,0.0,0.0,18,0.00,,,0.00,LWC V1.12 B30,2013-03-25 21:19:00,
2013-03-25 15:24:00,51.1,9.1,29.53,North,-999,0.0,0.0,18,0.00,,,0.00,LWC V1.12 B30,2013-03-25 21:24:00,
2013-03-25 15:29:00,51.5,8.2,29.53,North,-999,0.0,0.0,17,0.00,,,0.00,LWC V1.12 B30,2013-03-25 21:29:00,
2013-03-25 15:34:00,51.6,9.5,29.53,North,-999,0.0,0.0,18,0.00,,,0.00,LWC V1.12 B30,2013-03-25 21:34:00,
2013-03-25 15:39:00,51.8,8.4,29.53,North,-999,0.0,0.0,17,0.00,,,0.00,LWC V1.12 B30,2013-03-25 21:39:00,
2013-03-25 15:44:00,52.1,8.6,29.53,North,-999,0.0,0.0,17,0.00,,,0.00,LWC V1.12 B30,2013-03-25 21:44:00,
2013-03-25 15:49:00,52.2,8.7,29.53,North,-999,0.0,0.0,17,0.00,,,0.00,LWC V1.12 B30,2013-03-25 21:49:00,
2013-03-25 15:54:00,52.2,8.7,29.53,North,-999,0.0,0.0,17,0.00,,,0.00,LWC V1.12 B30,2013-03-25 21:54:00,
2013-03-25 15:59:00,52.2,8.7,29.53,North,-999,0.0,0.0,17,0.00,,,0.00,LWC V1.12 B30,2013-03-25 21:59:00,
2013-03-25 16:04:00,52.3,8.8,29.53,North,-999,0.0,0.0,17,0.00,,,0.00,LWC V1.12 B30,2013-03-25 22:04:00,
2013-03-25 16:09:00,52.4,8.9,29.53,North,-999,0.0,0.0,17,0.00,,,0.00,LWC V1.12 B30,2013-03-25 22:09:00,
2013-03-25 16:14:00,52.6,9.1,29.53,North,-999,0.0,0.0,17,0.00,,,0.00,LWC V1.12 B30,2013-03-25 22:14:00,
2013-03-25 16:19:00,52.8,9.2,29.53,North,-999,0.0,0.0,17,0.00,,,0.00,LWC V1.12 B30,2013-03-25 22:19:00,
2013-03-25 16:24:00,52.9,9.3,29.53,North,-999,0.0,0.0,17,0.00,,,0.00,LWC V1.12 B30,2013-03-25 22:24:00,
2013-03-25 16:29:00,53.0,9.4,29.53,North,-999,0.0,0.0,17,0.00,,,0.00,LWC V1.12 B30,2013-03-25 22:29:00,
2013-03-25 16:34:00,53.2,9.5,29.53,North,-999,0.0,0.0,17,0.00,,,0.00,LWC V1.12 B30,2013-03-25 22:34:00,
2013-03-25 16:39:00,53.2,9.5,29.53,North,-999,0.0,0.0,17,0.00,,,0.00,LWC V1.12 B30,2013-03-25 22:39:00,
2013-03-25 16:45:00,53.3,9.6,29.53,North,-999,0.0,0.0,17,0.00,,,0.00,LWC V1.12 B30,2013-03-25 22:45:00,
2013-03-25 16:50:00,53.3,9.6,29.53,North,-999,0.0,0.0,17,0.00,,,0.00,LWC V1.12 B30,2013-03-25 22:50:00,
2013-03-25 16:55:00,53.3,9.6,29.53,North,-999,0.0,0.0,17,0.00,,,0.00,LWC V1.12 B30,2013-03-25 22:55:00,
2013-03-25 17:00:00,53.4,11.0,29.53,North,-999,0.0,0.0,18,0.00,,,0.00,LWC V1.12 B30,2013-03-25 23:00:00,
2013-03-25 17:05:00,53.5,11.1,29.53,North,-999,0.0,0.0,18,0.00,,,0.00,LWC V1.12 B30,2013-03-25 23:05:00,
2013-03-25 17:10:00,53.6,11.1,29.53,North,-999,0.0,0.0,18,0.00,,,0.00,LWC V1.12 B30,2013-03-25 23:10:00,
2013-03-25 17:15:00,53.6,11.1,29.53,North,-999,0.0,0.0,18,0.00,,,0.00,LWC V1.12 B30,2013-03-25 23:15:00,
2013-03-25 17:20:00,53.7,11.2,29.53,North,-999,0.0,0.0,18,0.00,,,0.00,LWC V1.12 B30,2013-03-25 23:20:00,
2013-03-25 17:25:00,53.6,11.1,29.53,North,-999,0.0,0.0,18,0.00,,,0.00,LWC V1.12 B30,2013-03-25 23:25:00,
2013-03-25 17:30:00,53.7,11.2,29.53,North,-999,0.0,0.0,18,0.00,,,0.00,LWC V1.12 B30,2013-03-25 23:30:00,
2013-03-25 17:35:00,53.7,11.2,29.53,North,-999,0.0,0.0,18,0.00,,,0.00,LWC V1.12 B30,2013-03-25 23:35:00,
2013-03-25 17:40:00,53.6,11.1,29.53,North,-999,0.0,0.0,18,0.00,,,0.00,LWC V1.12 B30,2013-03-25 23:40:00,
2013-03-25 17:45:00,53.6,11.1,29.53,North,-999,0.0,0.0,18,0.00,,,0.00,LWC V1.12 B30,2013-03-25 23:45:00,
2013-03-25 17:50:00,53.6,11.1,29.53,North,-999,0.0,0.0,18,0.00,,,0.00,LWC V1.12 B30,2013-03-25 23:50:00,
2013-03-25 17:55:00,53.5,11.1,29.53,North,-999,0.0,0.0,18,0.00,,,0.00,LWC V1.12 B30,2013-03-25 23:55:00,
2013-03-25 18:01:00,53.5,11.1,29.53,North,-999,0.0,0.0,18,0.00,,,0.00,LWC V1.12 B30,2013-03-26 00:01:00,
2013-03-25 18:06:00,53.4,11.0,29.53,North,-999,0.0,0.0,18,0.00,,,0.00,LWC V1.12 B30,2013-03-26 00:06:00,
2013-03-25 18:11:00,53.4,12.2,29.53,North,-999,0.0,0.0,19,0.00,,,0.00,LWC V1.12 B30,2013-03-26 00:11:00,
2013-03-25 18:16:00,53.4,12.2,29.53,North,-999,0.0,0.0,19,0.00,,,0.00,LWC V1.12 B30,2013-03-26 00:16:00,
2013-03-25 18:21:00,53.3,12.1,29.53,North,-999,0.0,0.0,19,0.00,,,0.00,LWC V1.12 B30,2013-03-26 00:21:00,
2013-03-25 18:26:00,53.3,12.1,29.53,North,-999,0.0,0.0,19,0.00,,,0.00,LWC V1.12 B30,2013-03-26 00:26:00,
2013-03-25 18:31:00,53.2,12.0,29.53,North,-999,0.0,0.0,19,0.00,,,0.00,LWC V1.12 B30,2013-03-26 00:31:00,
2013-03-25 18:36:00,53.1,11.9,29.53,North,-999,0.0,0.0,19,0.00,,,0.00,LWC V1.12 B30,2013-03-26 00:36:00,
2013-03-25 18:41:00,53.0,11.9,29.53,North,-999,0.0,0.0,19,0.00,,,0.00,LWC V1.12 B30,2013-03-26 00:41:00,
2013-03-25 18:46:00,52.9,11.8,29.53,North,-999,0.0,0.0,19,0.00,,,0.00,LWC V1.12 B30,2013-03-26 00:46:00,
2013-03-25 18:51:00,52.8,11.7,29.53,North,-999,0.0,0.0,19,0.00,,,0.00,LWC V1.12 B30,2013-03-26 00:51:00,
2013-03-25 18:56:00,52.7,11.6,29.53,North,-999,0.0,0.0,19,0.00,,,0.00,LWC V1.12 B30,2013-03-26 00:56:00,
2013-03-25 19:01:00,52.5,11.5,29.53,North,-999,0.0,0.0,19,0.00,,,0.00,LWC V1.12 B30,2013-03-26 01:01:00,
2013-03-25 19:07:00,52.3,11.3,29.53,North,-999,0.0,0.0,19,0.00,,,0.00,LWC V1.12 B30,2013-03-26 01:07:00,
2013-03-25 19:12:00,52.2,11.2,29.53,North,-999,0.0,0.0,19,0.00,,,0.00,LWC V1.12 B30,2013-03-26 01:12:00,
2013-03-25 19:17:00,52.0,11.0,29.53,North,-999,0.0,0.0,19,0.00,,,0.00,LWC V1.12 B30,2013-03-26 01:17:00,
2013-03-25 19:22:00,51.8,10.9,29.53,North,-999,0.0,0.0,19,0.00,,,0.00,LWC V1.12 B30,2013-03-26 01:22:00,
2013-03-25 19:27:00,51.8,10.9,29.53,North,-999,0.0,0.0,19,0.00,,,0.00,LWC V1.12 B30,2013-03-26 01:27:00,
2013-03-25 19:32:00,51.7,10.8,29.53,North,-999,0.0,0.0,19,0.00,,,0.00,LWC V1.12 B30,2013-03-26 01:32:00,
2013-03-25 19:37:00,51.6,10.7,29.53,North,-999,0.0,0.0,19,0.00,,,0.00,LWC V1.12 B30,2013-03-26 01:37:00,
2013-03-25 19:42:00,51.5,10.6,29.53,North,-999,0.0,0.0,19,0.00,,,0.00,LWC V1.12 B30,2013-03-26 01:42:00,
2013-03-25 19:47:00,51.5,11.8,29.53,North,-999,0.0,0.0,20,0.00,,,0.00,LWC V1.12 B30,2013-03-26 01:47:00,
2013-03-25 19:52:00,51.3,11.6,29.53,North,-999,0.0,0.0,20,0.00,,,0.00,LWC V1.12 B30,2013-03-26 01:52:00,
2013-03-25 19:57:00,51.3,11.6,29.53,North,-999,0.0,0.0,20,0.00,,,0.00,LWC V1.12 B30,2013-03-26 01:57:00,
2013-03-25 20:02:00,51.1,11.4,29.53,North,-999,0.0,0.0,20,0.00,,,0.00,LWC V1.12 B30,2013-03-26 02:02:00,
2013-03-25 20:07:00,51.0,11.4,29.53,North,-999,0.0,0.0,20,0.00,,,0.00,LWC V1.12 B30,2013-03-26 02:07:00,
2013-03-25 20:12:00,50.9,11.3,29.53,North,-999,0.0,0.0,20,0.00,,,0.00,LWC V1.12 B30,2013-03-26 02:12:00,
2013-03-25 20:17:00,50.8,12.3,29.53,North,-999,0.0,0.0,21,0.00,,,0.00,LWC V1.12 B30,2013-03-26 02:17:00,
2013-03-25 20:22:00,50.7,12.2,29.53,North,-999,0.0,0.0,21,0.00,,,0.00,LWC V1.12 B30,2013-03-26 02:22:00,
2013-03-25 20:27:00,50.6,12.1,29.53,North,-999,0.0,0.0,21,0.00,,,0.00,LWC V1.12 B30,2013-03-26 02:27:00,
2013-03-25 20:32:00,50.5,12.0,29.53,North,-999,0.0,0.0,21,0.00,,,0.00,LWC V1.12 B30,2013-03-26 02:32:00,
2013-03-25 20:37:00,50.4,12.0,29.53,North,-999,0.0,0.0,21,0.00,,,0.00,LWC V1.12 B30,2013-03-26 02:37:00,
2013-03-25 20:42:00,50.4,12.0,29.53,North,-999,0.0,0.0,21,0.00,,,0.00,LWC V1.12 B30,2013-03-26 02:42:00,
2013-03-25 20:47:00,50.3,11.9,29.53,North,-999,0.0,0.0,21,0.00,,,0.00,LWC V1.12 B30,2013-03-26 02:47:00,
2013-03-25 20:52:00,50.2,11.8,29.53,North,-999,0.0,0.0,21,0.00,,,0.00,LWC V1.12 B30,2013-03-26 02:52:00,
2013-03-25 20:57:00,50.1,11.7,29.53,North,-999,0.0,0.0,21,0.00,,,0.00,LWC V1.12 B30,2013-03-26 02:57:00,
2013-03-25 21:02:00,50.1,11.7,29.53,North,-999,0.0,0.0,21,0.00,,,0.00,LWC V1.12 B30,2013-03-26 03:02:00,
2013-03-25 21:07:00,50.1,11.7,29.53,North,-999,0.0,0.0,21,0.00,,,0.00,LWC V1.12 B30,2013-03-26 03:07:00,
2013-03-25 21:12:00,50.1,10.6,29.53,North,-999,0.0,0.0,20,0.00,,,0.00,LWC V1.12 B30,2013-03-26 03:12:00,
2013-03-25 21:17:00,50.2,11.8,29.53,North,-999,0.0,0.0,21,0.00,,,0.00,LWC V1.12 B30,2013-03-26 03:17:00,
2013-03-25 21:22:00,50.2,11.8,29.53,North,-999,0.0,0.0,21,0.00,,,0.00,LWC V1.12 B30,2013-03-26 03:22:00,
2013-03-25 21:28:00,50.2,11.8,29.53,North,-999,0.0,0.0,21,0.00,,,0.00,LWC V1.12 B30,2013-03-26 03:28:00,
2013-03-25 21:33:00,50.2,11.8,29.53,North,-999,0.0,0.0,21,0.00,,,0.00,LWC V1.12 B30,2013-03-26 03:33:00,
2013-03-25 21:38:00,50.1,11.7,29.53,North,-999,0.0,0.0,21,0.00,,,0.00,LWC V1.12 B30,2013-03-26 03:38:00,
2013-03-25 21:43:00,50.2,11.8,29.53,North,-999,0.0,0.0,21,0.00,,,0.00,LWC V1.12 B30,2013-03-26 03:43:00,
2013-03-25 21:48:00,50.1,11.7,29.53,North,-999,0.0,0.0,21,0.00,,,0.00,LWC V1.12 B30,2013-03-26 03:48:00,
2013-03-25 21:53:00,50.1,11.7,29.53,North,-999,0.0,0.0,21,0.00,,,0.00,LWC V1.12 B30,2013-03-26 03:53:00,
2013-03-25 21:58:00,50.0,11.6,29.53,North,-999,0.0,0.0,21,0.00,,,0.00,LWC V1.12 B30,2013-03-26 03:58:00,
2013-03-25 22:00:00,50.0,11.6,29.53,North,-999,0.0,0.0,21,0.00,,,0.00,LWC V1.12 B30,2013-03-26 04:00:00,
2013-03-25 22:01:00,50.0,11.6,29.53,North,-999,0.0,0.0,21,0.00,,,0.00,LWC V1.12 B30,2013-03-26 04:01:00,
2013-03-25 22:02:00,50.0,11.6,29.53,North,-999,0.0,0.0,21,0.00,,,0.00,LWC V1.12 B30,2013-03-26 04:02:00,
2013-03-25 22:07:00,50.0,11.6,29.53,North,-999,0.0,0.0,21,0.00,,,0.00,LWC V1.12 B30,2013-03-26 04:07:00,
2013-03-25 22:12:00,49.8,11.5,29.53,North,-999,0.0,0.0,21,0.00,,,0.00,LWC V1.12 B30,2013-03-26 04:12:00,
2013-03-25 22:17:00,49.8,10.4,29.53,North,-999,0.0,0.0,20,0.00,,,0.00,LWC V1.12 B30,2013-03-26 04:17:00,
2013-03-25 22:22:00,49.7,11.4,29.53,North,-999,0.0,0.0,21,0.00,,,0.00,LWC V1.12 B30,2013-03-26 04:22:00,
2013-03-25 22:27:00,49.7,11.4,29.53,North,-999,0.0,0.0,21,0.00,,,0.00,LWC V1.12 B30,2013-03-26 04:27:00,
2013-03-25 22:32:00,49.7,10.3,29.53,North,-999,0.0,0.0,20,0.00,,,0.00,LWC V1.12 B30,2013-03-26 04:32:00,
2013-03-25 22:37:00,49.7,11.4,29.53,North,-999,0.0,0.0,21,0.00,,,0.00,LWC V1.12 B30,2013-03-26 04:37:00,
2013-03-25 22:42:00,49.6,10.2,29.53,North,-999,0.0,0.0,20,0.00,,,0.00,LWC V1.12 B30,2013-03-26 04:42:00,
2013-03-25 22:47:00,49.7,11.4,29.53,North,-999,0.0,0.0,21,0.00,,,0.00,LWC V1.12 B30,2013-03-26 04:47:00,
2013-03-25 22:52:00,49.7,11.4,29.53,North,-999,0.0,0.0,21,0.00,,,0.00,LWC V1.12 B30,2013-03-26 04:52:00,
2013-03-25 22:57:00,49.7,11.4,29.53,North,-999,0.0,0.0,21,0.00,,,0.00,LWC V1.12 B30,2013-03-26 04:57:00,
2013-03-25 23:02:00,49.6,11.3,29.53,North,-999,0.0,0.0,21,0.00,,,0.00,LWC V1.12 B30,2013-03-26 05:02:00,
2013-03-25 23:07:00,49.7,11.4,29.53,North,-999,0.0,0.0,21,0.00,,,0.00,LWC V1.12 B30,2013-03-26 05:07:00,
2013-03-25 23:12:00,49.6,11.3,29.53,North,-999,0.0,0.0,21,0.00,,,0.00,LWC V1.12 B30,2013-03-26 05:12:00,
2013-03-25 23:17:00,49.5,11.2,29.53,North,-999,0.0,0.0,21,0.00,,,0.00,LWC V1.12 B30,2013-03-26 05:17:00,
2013-03-25 23:22:00,49.2,11.0,29.53,North,-999,0.0,0.0,21,0.00,,,0.00,LWC V1.12 B30,2013-03-26 05:22:00,
2013-03-25 23:27:00,49.0,9.7,29.53,North,-999,0.0,0.0,20,0.00,,,0.00,LWC V1.12 B30,2013-03-26 05:27:00,
2013-03-25 23:32:00,48.7,10.5,29.53,North,-999,0.0,0.0,21,0.00,,,0.00,LWC V1.12 B30,2013-03-26 05:32:00,
2013-03-25 23:37:00,48.5,10.4,29.53,North,-999,0.0,0.0,21,0.00,,,0.00,LWC V1.12 B30,2013-03-26 05:37:00,
2013-03-25 23:42:00,48.2,10.1,29.53,North,-999,0.0,0.0,21,0.00,,,0.00,LWC V1.12 B30,2013-03-26 05:42:00,
2013-03-25 23:48:00,48.0,10.0,29.53,North,-999,0.0,0.0,21,0.00,,,0.00,LWC V1.12 B30,2013-03-26 05:48:00,
2013-03-25 23:53:00,47.7,9.7,29.53,North,-999,0.0,0.0,21,0.00,,,0.00,LWC V1.12 B30,2013-03-26 05:53:00,
2013-03-25 23:58:00,47.5,9.5,29.53,North,-999,0.0,0.0,21,0.00,,,0.00,LWC V1.12 B30,2013-03-26 05:58:00,